Torna al catalogo

THORAD DELTA 1 DEB

AttivoLEO
NORAD 8305·DEBRIS·🇺🇸 United States

Lanciato Nov 15, 1974 da Vandenberg Space Force Base

Loading…

Prossimi Passaggi (prossime 24 ore)

TLE

AggiornatoSource: Space-Track

Epoca: Sep 14, 2026, 12:24 UTC

1 08305U 74089BN  26257.51672588 -.00000023  00000-0  13263-3 0  9992
2 08305 101.4253  95.2252 0093624  79.3563 308.9542 12.35213128336119

Traccia THORAD DELTA 1 DEB in tempo reale con AllMySat

Download on the App Store